Regional Weather Roundup
Issued by NWS

Home | Current Version | Previous Version | Graphics & Text | Print | Product List | Glossary On
Versions: 1 2 3 4 5 6 7 8 9 10 11 12 13 14 15 16 17 18 19 20 21 22 23 24 25 26 27 28
000
ASUS45 KSLC 021710
RWRUT

UTAH REGIONAL WEATHER ROUNDUP
NATIONAL WEATHER SERVICE SALT LAKE CITY UT
1000 AM MST FRI DEC 02 2016

UTZ001>011-023>025-021800-

NORTHERN UTAH

CITY           SKY/WX    TMP DP  RH WIND       PRES   REMARKS
BRIGHAM CITY     N/A     32  20  60 S3        30.25S
HILL AFB       MOSUNNY   24  16  71 E9        30.22R WCI  14
LOGAN          SUNNY     27  21  78 CALM      30.27R
OGDEN          SUNNY     28  20  71 W5        30.23R WCI  23
SALT LAKE CITY MOSUNNY   31  23  72 N7        30.24R WCI  24
TOOELE VALLEY  MOSUNNY   23  23 100 CALM      30.25R
WENDOVER       SUNNY     34  14  44 CALM      30.28R
HEBER CITY     MOSUNNY   19  14  79 CALM      30.20R
WEST JORDAN    SUNNY     30  24  76 CALM      30.22R

$$

UTZ011>015-024>027-021800-

CENTRAL/NORTHEAST UTAH

CITY           SKY/WX    TMP DP  RH WIND       PRES   REMARKS
PROVO AIRPORT  SUNNY     29  22  75 CALM      30.24R
MOAB/CANYONLAN CLOUDY    35  22  58 NW8       30.10R WCI  29
DELTA          SUNNY     30  23  74 N7        30.21R WCI  23
PRICE          CLOUDY    30  13  49 NE13      30.11R WCI  20
ROOSEVELT      MOSUNNY   30  21  69 CALM      30.21R
VERNAL         MOSUNNY   30  16  56 SE6       30.17R WCI  24

$$

UTZ013>016-019>022-027-021800-

SOUTHERN UTAH

CITY           SKY/WX    TMP DP  RH WIND       PRES   REMARKS
BRYCE CANYON   NOT AVBL
CEDAR CITY     FLURRIES  27  20  75 N12       30.11R WCI  17
MILFORD        LGT SNOW  28  23  81 N16       30.18R WCI  16
ST GEORGE      CLOUDY    43  18  36 S5        30.12R
HANKSVILLE     PTSUNNY   36  19  51 NW5       30.14R WCI  32
BLANDING       CLOUDY    35  16  47 NE12      30.09S WCI  26

$$

REGIONAL REPORTS     COLORADO/ARIZONA

CITY           SKY/WX    TMP DP  RH WIND       PRES   REMARKS
CRAIG, CO      CLOUDY    18  14  84 CALM      30.16R
GRAND JUNCTION CLOUDY    33  23  66 S6        30.11R WCI  28
RIFLE, CO      CLOUDY    28  21  75 CALM      30.11R
MONTROSE, CO   PTSUNNY   28  16  60 S6        30.12R WCI  22
CORTEZ, CO     CLOUDY    30  18  60 CALM      30.02R
COLORADO CITY    N/A     37  23  56 NW5       30.08R WCI  34
PAGE, AZ       PTSUNNY   41  14  33 N6        30.05R
GRAND CANYON   MOSUNNY   31  16  54 NE22G30   29.99R WCI  18
KINGMAN, AZ    CLOUDY    43  16  33 NE10      30.00R
FLAGSTAFF, AZ  CLOUDY    29  14  53 NE10      29.94R WCI  20

$$

REGIONAL REPORTS    NEVADA/IDAHO/WYOMING

CITY           SKY/WX    TMP DP  RH WIND       PRES   REMARKS
LAS VEGAS, NV  PTSUNNY   47  13  25 N23G33    30.11R
ELY, NY        SUNNY     22  13  68 N8        30.20R WCI  12
ELKO, NV       PTSUNNY   20  14  77 CALM      30.30R
POCATELLO, ID  CLOUDY    22  19  89 SW5       30.32R WCI  16
BURLEY, ID     CLOUDY    26  22  84 W6        30.32R WCI  19
FORT BRIDGER,  SUNNY     18  16  93 NW6       30.20R WCI   9
EVANSTON, WY   HAZE      16  11  80 CALM      30.15R VSB 1/4
ROCK SPRINGS,  CLOUDY    15  12  88 W7        30.17R WCI   5

$$




USA.gov is the U.S. government's official web portal to all federal, state and local government web resources and services.